TimePST,TemperatureF,Dew PointF,Humidity,Sea Level PressureIn,VisibilityMPH,Wind Direction,Wind SpeedMPH,Gust SpeedMPH,PrecipitationIn,Events,Conditions,WindDirDegrees,DateUTC
12:55 AM,25.0,12.0,58,30.17,10.0,WNW,3.5,-,N/A,,Clear,290,2013-12-13 08:55:00
1:55 AM,25.0,12.0,58,30.16,10.0,NW,8.1,-,N/A,,Clear,310,2013-12-13 09:55:00
2:55 AM,26.1,12.0,55,30.17,10.0,West,5.8,-,N/A,,Clear,270,2013-12-13 10:55:00
3:55 AM,21.9,10.0,60,30.15,10.0,South,4.6,-,N/A,,Clear,190,2013-12-13 11:55:00
4:55 AM,21.9,10.9,63,30.17,10.0,NNE,4.6,-,N/A,,Clear,30,2013-12-13 12:55:00
5:55 AM,19.9,10.0,65,30.20,10.0,North,5.8,-,N/A,,Clear,360,2013-12-13 13:55:00
6:55 AM,21.0,10.9,65,30.21,10.0,West,5.8,-,N/A,,Clear,280,2013-12-13 14:55:00
7:55 AM,30.0,12.0,47,30.23,10.0,Calm,Calm,-,N/A,,Clear,0,2013-12-13 15:55:00
8:55 AM,39.0,12.9,34,30.25,10.0,Calm,Calm,-,N/A,,Clear,0,2013-12-13 16:55:00
9:55 AM,46.0,12.9,26,30.26,10.0,NW,3.5,-,N/A,,Clear,320,2013-12-13 17:55:00
11:55 AM,53.1,15.1,22,30.23,10.0,South,3.5,-,N/A,,Clear,180,2013-12-13 19:55:00
12:55 PM,55.0,14.0,20,30.21,10.0,SSE,3.5,-,N/A,,Clear,150,2013-12-13 20:55:00
1:55 PM,57.9,12.0,16,30.19,10.0,Calm,Calm,-,N/A,,Clear,0,2013-12-13 21:55:00
2:55 PM,60.1,10.9,14,30.18,10.0,Calm,Calm,-,N/A,,Clear,0,2013-12-13 22:55:00
3:55 PM,57.9,15.1,19,30.19,10.0,SSW,3.5,-,N/A,,Clear,200,2013-12-13 23:55:00
4:55 PM,50.0,15.1,25,30.22,10.0,Calm,Calm,-,N/A,,Clear,0,2013-12-14 00:55:00
5:55 PM,44.1,12.0,27,30.25,10.0,WNW,6.9,-,N/A,,Clear,300,2013-12-14 01:55:00
6:55 PM,39.9,12.9,33,30.29,10.0,Calm,Calm,-,N/A,,Clear,0,2013-12-14 02:55:00
7:55 PM,37.0,12.9,37,30.31,10.0,WNW,5.8,-,N/A,,Clear,290,2013-12-14 03:55:00
8:55 PM,34.0,12.9,42,30.32,10.0,Calm,Calm,-,N/A,,Clear,0,2013-12-14 04:55:00
9:55 PM,30.9,12.0,46,30.34,10.0,WNW,3.5,-,N/A,,Clear,290,2013-12-14 05:55:00
10:55 PM,30.0,12.0,47,30.35,10.0,Calm,Calm,-,N/A,,Clear,0,2013-12-14 06:55:00
11:55 PM,28.9,12.0,49,30.36,10.0,NNW,5.8,-,N/A,,Clear,330,2013-12-14 07:55:00